This is the latest recevied weather packets stored in our database for station/object IW2HNF-3. If no packets are shown the sender has not sent any weather packets the latest 10 day(s).
| Time | Temp. | Humidity | Pressure | Rain* | Wind** | Luminosity | Snow |
|---|---|---|---|---|---|---|---|
| 1788105680 | 30° C | 43% | 1013.4 hPa | 0 mm | - | - | - |
| 1788105057 | 30° C | 43% | 1013.4 hPa | 0 mm | - | - | - |
| 1788103857 | 30° C | 43% | 1013.5 hPa | 0 mm | - | - | - |
| 1788101457 | 30.56° C | 43% | 1013.6 hPa | 0 mm | - | - | - |
| 1788100256 | 30° C | 44% | 1013.8 hPa | 0 mm | - | - | - |
| 1788099633 | 30° C | 44% | 1013.8 hPa | 0 mm | - | - | - |
| 1788099057 | 30° C | 44% | 1013.8 hPa | 0 mm | - | - | - |
| 1788098481 | 30° C | 44% | 1013.9 hPa | 0 mm | - | - | - |
| 1788097857 | 30° C | 45% | 1014 hPa | 0 mm | - | - | - |
| 1788096033 | 29.44° C | 46% | 1014.3 hPa | 0 mm | - | - | - |
| 1788095457 | 28.89° C | 46% | 1014.4 hPa | 0 mm | - | - | - |
| 1788094833 | 28.89° C | 47% | 1014.5 hPa | 0 mm | - | - | - |
| 1788093057 | 28.89° C | 47% | 1014.6 hPa | 0 mm | - | - | - |
| 1788092432 | 28.89° C | 47% | 1014.6 hPa | 0 mm | - | - | - |
| 1788090657 | 28.33° C | 48% | 1014.7 hPa | 0 mm | - | - | - |
| 1788090033 | 28.33° C | 48% | 1014.7 hPa | 0 mm | - | - | - |
| 1788089457 | 27.78° C | 48% | 1014.7 hPa | 0 mm | - | - | - |
| 1788088833 | 27.78° C | 49% | 1014.9 hPa | 0 mm | - | - | - |
| 1788088257 | 27.78° C | 50% | 1014.9 hPa | 0 mm | - | - | - |
| 1788087633 | 27.22° C | 51% | 1015.1 hPa | 0 mm | - | - | - |
| 1788087057 | 27.22° C | 51% | 1015.2 hPa | 0 mm | - | - | - |
| 1788086433 | 27.22° C | 51% | 1015.3 hPa | 0 mm | - | - | - |
| 1788085857 | 26.67° C | 53% | 1015.3 hPa | 0 mm | - | - | - |
| 1788085233 | 26.67° C | 53% | 1015.3 hPa | 0 mm | - | - | - |
| 1788084657 | 26.67° C | 56% | 1015.5 hPa | 0 mm | - | - | - |
* Rain latest hour (hover to see other rain measurements)
** Current wind speed in m/s (hover to see current wind gust speed)